DateTimeUTC,F1_A11,F1_S11,BsB_S11,BsG_S11,BsR_S11,BbsB_S11,BbsG_S11,BbsR_S11,BaB_A11,BaG_A11,BaR_A11,Tu_S11,T_S11,Uu_S11,U_S11,P_S11,T1_A11
2021-09-12T05:00:00Z,00000200,21000000,,,,,,,-000.03,0000.30,0000.32,19.1,26.1,,00.0,0663.8,31.1
2021-09-12T05:01:00Z,00000200,21000000,,,,,,,0000.40,0000.09,0000.02,19.1,26.1,,00.0,0663.9,31.0
2021-09-12T05:02:00Z,00000200,21000000,,,,,,,-000.13,-000.30,0000.27,19.2,26.2,,00.0,0663.9,31.1
2021-09-12T05:03:00Z,00000200,61000000,,,,,,,0000.30,0000.25,0000.11,19.2,26.2,,00.0,0663.9,31.1
2021-09-12T05:04:00Z,00000200,41000000,0000.27,0000.39,0000.57,0000.30,0000.14,0000.42,-000.02,0000.56,-000.11,19.6,26.1,,00.0,0664.8,31.1
2021-09-12T05:05:00Z,00000200,01000000,0000.20,0000.56,0000.27,0000.94,0000.26,-000.12,0000.69,-000.10,0000.25,19.7,26.1,,00.0,0664.7,31.1
2021-09-12T05:06:00Z,00000200,01000000,-000.19,0000.25,0000.44,0000.02,0000.10,0000.20,-000.13,0000.22,0000.39,19.7,26.1,,00.0,0664.7,31.1
2021-09-12T05:07:00Z,00000200,01000000,0001.00,0000.09,0000.57,-000.24,-000.03,0000.32,0000.12,0000.21,0000.14,19.8,26.1,,00.0,0664.8,31.1
2021-09-12T05:08:00Z,00000200,01000000,0000.70,0000.40,0000.16,0000.25,0000.20,0000.03,0000.07,-000.06,-000.39,19.7,26.1,,00.0,0664.9,31.1
2021-09-12T05:09:00Z,00000200,01000000,-000.11,0000.63,0000.25,0000.21,-000.02,0000.22,0000.06,0000.18,0000.22,19.7,26.1,,00.0,0664.8,31.1
2021-09-12T05:10:00Z,00000200,01000000,0000.82,0000.32,0000.28,0000.14,0000.02,0000.17,0000.04,-000.37,-000.02,19.6,26.1,,00.0,0664.7,31.0
2021-09-12T05:11:00Z,00000200,01000000,0000.20,0000.29,0000.18,-000.30,0000.29,-000.02,0000.06,0000.12,-000.21,19.5,26.0,,00.0,0664.8,31.0
2021-09-12T05:12:00Z,00000200,01000000,-000.66,0000.17,0000.19,0000.15,0000.14,0000.28,0000.25,0000.47,0000.20,19.4,25.9,,00.0,0664.7,31.0
2021-09-12T05:13:00Z,00000200,01000000,0000.42,0000.38,0000.16,-000.03,-000.03,0000.09,0000.34,0000.05,0000.41,19.5,25.9,,00.0,0664.8,31.0
2021-09-12T05:14:00Z,00000200,01000000,0000.30,-000.15,-000.47,-000.18,0000.26,0000.17,0000.34,0000.55,0000.45,19.5,26.0,,00.0,0664.7,31.0
2021-09-12T05:15:00Z,00000200,01000000,0000.03,0000.52,0000.38,0000.35,0000.30,0000.12,0000.20,-000.12,0000.14,19.5,26.0,,00.0,0664.8,31.0
2021-09-12T05:16:00Z,00000200,01000000,0001.13,0000.09,0000.00,0000.22,-000.03,0000.09,0000.02,0000.28,-000.25,19.6,26.0,,00.0,0664.7,31.1
2021-09-12T05:17:00Z,00000200,01000000,0000.20,0000.35,0000.06,0000.21,0000.21,0000.23,0000.23,0000.43,0000.18,19.6,26.0,,00.0,0664.6,31.1
2021-09-12T05:18:00Z,00000200,01000000,0000.01,0000.40,0000.26,-000.11,0000.13,0000.29,-000.10,-000.19,0000.35,19.7,26.1,,00.0,0664.6,31.1
2021-09-12T05:19:00Z,00000200,01000000,-000.30,0000.26,-000.26,0000.09,0000.03,-000.11,0000.42,0000.47,-000.03,19.8,26.1,,00.0,0664.6,31.1
2021-09-12T05:20:00Z,00000200,01000000,0000.66,0000.47,0000.25,0000.12,0000.21,-000.06,0000.34,0000.08,0000.35,19.8,26.1,,00.0,0664.6,31.1
2021-09-12T05:21:00Z,00000200,01000000,0000.46,-000.03,0000.11,0000.33,0000.31,0000.11,0000.18,0000.13,0000.05,19.8,26.1,,00.0,0664.7,31.1
2021-09-12T05:22:00Z,00000200,01000000,0000.49,0000.34,-000.06,-000.17,0000.02,-000.10,-000.06,-000.07,-000.07,19.8,26.1,,00.0,0664.6,31.1
2021-09-12T05:23:00Z,00000200,01000000,-000.21,0000.38,-000.02,0000.54,0000.02,0000.12,0000.21,0000.37,0000.25,19.8,26.1,,00.0,0664.6,31.1
2021-09-12T05:24:00Z,00000200,01000000,0000.59,0000.46,0000.15,0000.03,0000.21,-000.03,-000.13,-000.56,-000.45,19.7,26.1,,00.0,0664.5,31.0
2021-09-12T05:25:00Z,00000200,01000000,-000.53,0000.32,0000.37,0000.07,0000.23,0000.40,-000.39,-000.03,0000.12,19.6,26.0,,00.0,0664.5,31.0
2021-09-12T05:26:00Z,00000200,01000000,-000.07,0000.28,0000.04,-000.28,0000.37,0000.11,0000.38,0000.02,-000.08,19.5,25.9,,00.0,0664.4,31.0
2021-09-12T05:27:00Z,00000200,01000000,-000.26,-000.12,-000.05,-000.23,0000.36,0000.17,0000.39,0000.19,0000.33,19.4,25.9,,00.0,0664.5,31.0
2021-09-12T05:28:00Z,00000200,01000000,0000.75,0000.34,0000.38,0000.06,0000.23,0000.05,0000.40,0000.48,0000.05,19.4,25.9,,00.0,0664.4,31.0
2021-09-12T05:29:00Z,00000200,01000000,-000.16,0000.22,0000.09,-000.03,-000.20,0000.17,-000.14,0000.20,0000.13,19.5,25.9,,00.0,0664.4,31.0
2021-09-12T05:30:00Z,00000200,01000000,-000.11,0000.45,0000.37,-000.00,0000.00,0000.02,0000.47,0000.04,0000.43,19.5,25.9,,00.0,0664.4,31.0
2021-09-12T05:31:00Z,00000200,01000000,0000.19,0000.32,0000.31,0000.04,0000.30,-000.05,0000.09,0000.24,-000.24,19.6,26.0,,00.0,0664.3,31.0
2021-09-12T05:32:00Z,00000200,01000000,0000.38,0000.28,0000.25,0000.34,-000.01,0000.03,-000.18,0000.54,0000.36,19.6,26.0,,00.0,0664.2,31.0
2021-09-12T05:33:00Z,00000200,01000000,0000.56,0000.37,0000.35,-000.06,0000.28,0000.29,0000.31,-000.14,0000.16,19.7,26.0,,00.0,0664.3,31.1
2021-09-12T05:34:00Z,00000200,01000000,0000.15,0000.36,0000.09,0000.49,0000.12,0000.11,0000.18,0000.47,0000.06,19.7,26.0,,00.0,0664.4,31.1
2021-09-12T05:35:00Z,00000200,01000000,-000.42,0000.22,-000.07,0000.06,0000.08,0000.09,0000.14,-000.13,0000.10,19.8,26.0,,00.0,0664.3,31.1
2021-09-12T05:36:00Z,00000200,01000000,-000.04,0000.12,0000.01,0000.11,0000.10,-000.02,0000.27,0000.39,-000.03,19.8,26.1,,00.0,0664.3,31.1
2021-09-12T05:37:00Z,00000200,01000000,-000.11,0000.39,0000.07,-000.12,0000.58,0000.09,-000.03,-000.08,0000.36,19.9,26.1,,00.0,0664.2,31.1
2021-09-12T05:38:00Z,00000200,01000000,0000.04,-000.08,0000.37,0000.57,0000.26,-000.03,0000.18,-000.06,0000.06,19.9,26.1,,00.0,0664.3,31.1
2021-09-12T05:39:00Z,00000200,01000000,0000.11,0000.16,0000.24,-000.03,0000.21,0000.30,0000.28,0000.17,0000.15,19.9,26.1,,00.0,0664.2,31.1
2021-09-12T05:40:00Z,00000200,01000000,0000.11,0000.19,-000.09,0000.06,0000.26,0000.20,-000.08,-000.17,-000.19,19.8,26.1,,00.0,0664.3,31.1
2021-09-12T05:41:00Z,00000200,01000000,0000.21,0000.69,0000.17,-000.11,0000.06,0000.09,-000.11,0000.51,-000.06,19.7,26.0,,00.0,0664.2,31.0
2021-09-12T05:42:00Z,00000200,01000000,0000.05,0000.10,0000.11,0000.19,0000.11,-000.07,0000.51,-000.21,0000.43,19.7,26.0,,00.0,0664.2,31.0
2021-09-12T05:43:00Z,00000200,01000000,0000.29,0000.35,0000.04,-000.15,0000.00,0000.09,0000.24,0000.48,-000.05,19.7,26.0,,00.0,0664.1,31.0
2021-09-12T05:44:00Z,00000200,01000000,0000.93,0000.31,0000.44,0000.60,0000.13,0000.12,0000.27,0000.19,0000.30,19.7,26.0,,00.0,0664.1,31.1
2021-09-12T05:45:00Z,00000200,01000000,0000.42,0000.19,0000.01,-000.09,0000.27,0000.12,0000.19,-000.06,-000.00,19.8,26.0,,00.0,0664.1,31.0
2021-09-12T05:46:00Z,00000200,01000000,0000.24,0000.66,0000.07,0000.35,-000.20,0000.09,-000.07,0000.30,0000.19,19.8,26.1,,00.0,0664.2,31.1
2021-09-12T05:47:00Z,00000200,01000000,-000.28,0000.53,0000.29,0000.50,0000.11,-000.08,0000.36,0000.18,0000.13,19.8,26.1,,00.0,0664.2,31.1
2021-09-12T05:48:00Z,00000200,01000000,-000.12,0000.30,0000.27,0000.66,0000.42,0000.03,-000.12,0000.02,-000.12,19.9,26.1,,00.0,0664.3,31.1
2021-09-12T05:49:00Z,00000200,01000000,-000.33,0000.28,0000.14,0000.43,-000.12,-000.15,0000.14,0000.39,0000.28,19.9,26.1,,00.0,0664.1,31.1
2021-09-12T05:50:00Z,00000200,01000000,0000.33,0000.53,0000.43,0000.43,0000.20,-000.01,0000.17,-000.27,0000.19,19.9,26.2,,00.0,0664.2,31.1
2021-09-12T05:51:00Z,00000200,01000000,0000.53,0000.11,-000.20,-000.07,0000.24,0000.10,-000.14,0000.12,-000.04,20.0,26.2,,00.0,0664.1,31.1
2021-09-12T05:52:00Z,00000200,01000000,0000.43,0000.53,0000.16,0000.45,0000.34,0000.25,0000.36,0000.15,-000.09,20.0,26.2,,00.0,0664.1,31.1
2021-09-12T05:53:00Z,00000200,01000000,-000.04,0000.19,-000.18,-000.02,-000.01,0000.02,-000.07,-000.14,-000.06,19.9,26.2,,00.0,0664.2,31.1
2021-09-12T05:54:00Z,00000200,01000000,0000.39,-000.00,-000.12,0000.20,-000.11,-000.19,-000.15,0000.05,0000.02,19.8,26.1,,00.0,0664.1,31.0
2021-09-12T05:55:00Z,00000200,01000000,-000.13,0000.37,0000.27,0000.06,-000.02,0000.16,-000.17,-000.27,-000.22,19.7,26.1,,00.0,0664.1,31.0
2021-09-12T05:56:00Z,00000200,01000000,-001.14,0000.38,0000.16,-000.21,-000.01,-000.03,0000.32,0000.15,0000.27,19.6,26.0,,00.0,0664.1,31.0
2021-09-12T05:57:00Z,00000200,41000000,,,,,,,-000.28,-000.19,0000.07,19.6,26.0,,00.0,0664.1,31.0
2021-09-12T05:58:00Z,00000200,61000000,,,,,,,0000.21,0000.38,0000.07,19.3,26.1,,00.0,0663.1,31.0
2021-09-12T05:59:00Z,00000200,21000000,,,,,,,0000.48,0000.02,0000.21,19.3,26.2,,00.0,0663.1,31.0
